• în România
  • Lista ţărilor
  • Pe 7 zile
  • Temperatura apei
  • Hartă satelitară
  • Meteo pe hartă
  • Widget-uri
  • user-avatar
    Intrare

    Meteo pe oră la Algiers

    Astăzi, 23 Iunie, Vineri

    Timp Temperatura Precipitaţii Vânt Presiune Umiditate
    00:00 +20°C° 0 mm 2 m/s 751 mmHg 76%
    01:00 +19°C° 0 mm 2 m/s 751 mmHg 73%
    02:00 +19°C° 0 mm 2 m/s 751 mmHg 70%
    03:00 +19°C° 0 mm 2 m/s 751 mmHg 67%
    04:00 +20°C° 0 mm 2 m/s 751 mmHg 62%
    05:00 +23°C° 0 mm 2 m/s 751 mmHg 56%
    06:00 +25°C° 0 mm 2 m/s 752 mmHg 50%
    07:00 +27°C° 0 mm 2 m/s 752 mmHg 42%
    08:00 +29°C° 0 mm 2 m/s 752 mmHg 33%
    09:00 +32°C° 0 mm 2 m/s 753 mmHg 25%
    10:00 +34°C° 0 mm 3 m/s 752 mmHg 24%
    11:00 +35°C° 0 mm 3 m/s 752 mmHg 22%
    12:00 +36°C° 0 mm 4 m/s 752 mmHg 21%
    13:00 +36°C° 0 mm 4 m/s 752 mmHg 23%
    14:00 +36°C° 0 mm 4 m/s 751 mmHg 25%
    15:00 +36°C° 0 mm 4 m/s 751 mmHg 26%
    16:00 +34°C° 0 mm 4 m/s 751 mmHg 31%
    17:00 +33°C° 0 mm 4 m/s 751 mmHg 36%
    18:00 +32°C° 0 mm 4 m/s 751 mmHg 41%
    19:00 +28°C° 0 mm 3 m/s 751 mmHg 50%
    20:00 +26°C° 0 mm 3 m/s 751 mmHg 59%
    21:00 +24°C° 0 mm 2 m/s 751 mmHg 68%
    22:00 +23°C° 0 mm 2 m/s 751 mmHg 65%
    23:00 +23°C° 0 mm 2 m/s 751 mmHg 62%

    Mâine, 24 Iunie, Sâmbătă

    Timp Temperatura Precipitaţii Vânt Presiune Umiditate
    00:00 +23°C° 0 mm 2 m/s 751 mmHg 59%
    01:00 +21°C° 0 mm 2 m/s 751 mmHg 57%
    02:00 +21°C° 0 mm 2 m/s 751 mmHg 55%
    03:00 +20°C° 0 mm 2 m/s 751 mmHg 52%
    04:00 +23°C° 0 mm 2 m/s 751 mmHg 50%
    05:00 +25°C° 0 mm 2 m/s 751 mmHg 47%
    06:00 +27°C° 0 mm 2 m/s 751 mmHg 44%
    07:00 +29°C° 0 mm 2 m/s 751 mmHg 36%
    08:00 +32°C° 0 mm 2 m/s 751 mmHg 28%
    09:00 +35°C° 0 mm 3 m/s 751 mmHg 19%
    10:00 +37°C° 0 mm 3 m/s 751 mmHg 18%
    11:00 +38°C° 0 mm 4 m/s 750 mmHg 17%
    12:00 +40°C° 0 mm 4 m/s 750 mmHg 15%
    13:00 +40°C° 0 mm 4 m/s 750 mmHg 17%
    14:00 +40°C° 0 mm 5 m/s 749 mmHg 18%
    15:00 +40°C° 0 mm 5 m/s 749 mmHg 19%
    16:00 +37°C° 0 mm 5 m/s 749 mmHg 24%
    17:00 +36°C° 0 mm 5 m/s 749 mmHg 28%
    18:00 +34°C° 0 mm 4 m/s 748 mmHg 33%
    19:00 +32°C° 0 mm 4 m/s 749 mmHg 38%
    20:00 +28°C° 0 mm 4 m/s 749 mmHg 44%
    21:00 +25°C° 0 mm 4 m/s 749 mmHg 50%
    22:00 +25°C° 0 mm 3 m/s 749 mmHg 48%
    23:00 +25°C° 0 mm 3 m/s 749 mmHg 46%

    Poimâine, 25 Iunie, Duminică

    Timp Temperatura Precipitaţii Vânt Presiune Umiditate
    00:00 +25°C° 0 mm 3 m/s 749 mmHg 43%
    01:00 +24°C° 0 mm 3 m/s 748 mmHg 43%
    02:00 +24°C° 0 mm 3 m/s 748 mmHg 42%
    03:00 +24°C° 0 mm 3 m/s 747 mmHg 41%
    04:00 +26°C° 0 mm 3 m/s 747 mmHg 39%
    05:00 +27°C° 0 mm 4 m/s 747 mmHg 37%
    06:00 +29°C° 0 mm 4 m/s 747 mmHg 35%
    07:00 +33°C° 0 mm 4 m/s 747 mmHg 30%
    08:00 +36°C° 0 mm 4 m/s 747 mmHg 25%
    09:00 +40°C° 0 mm 4 m/s 747 mmHg 20%
    10:00 +41°C° 0 mm 5 m/s 747 mmHg 19%
    11:00 +42°C° 0 mm 5 m/s 747 mmHg 18%
    12:00 +44°C° 0 mm 6 m/s 747 mmHg 16%
    13:00 +44°C° 0 mm 6 m/s 746 mmHg 18%
    14:00 +43°C° 0 mm 7 m/s 746 mmHg 19%
    15:00 +43°C° 0 mm 7 m/s 745 mmHg 21%
    16:00 +41°C° 0 mm 6 m/s 745 mmHg 24%
    17:00 +39°C° 0 mm 6 m/s 745 mmHg 28%
    18:00 +37°C° 0 mm 5 m/s 745 mmHg 32%
    19:00 +35°C° 0 mm 5 m/s 745 mmHg 36%
    20:00 +33°C° 0 mm 5 m/s 746 mmHg 40%
    21:00 +30°C° 0 mm 5 m/s 746 mmHg 44%
    22:00 +30°C° 0 mm 5 m/s 746 mmHg 40%
    23:00 +32°C° 0 mm 5 m/s 745 mmHg 37%

    26 Iunie, Luni

    Timp Temperatura Precipitaţii Vânt Presiune Umiditate
    00:00 +32°C° 0 mm 5 m/s 745 mmHg 33%
    01:00 +32°C° 0 mm 5 m/s 745 mmHg 31%
    02:00 +32°C° 0 mm 4 m/s 744 mmHg 30%
    03:00 +32°C° 0 mm 4 m/s 744 mmHg 28%
    04:00 +32°C° 0 mm 4 m/s 744 mmHg 28%
    05:00 +31°C° 0 mm 3 m/s 744 mmHg 28%
    06:00 +33°C° 0 mm 3 m/s 745 mmHg 28%
    07:00 +36°C° 0 mm 3 m/s 745 mmHg 24%
    08:00 +40°C° 0 mm 4 m/s 745 mmHg 20%
    09:00 +42°C° 0 mm 4 m/s 745 mmHg 16%
    10:00 +42°C° 0 mm 4 m/s 745 mmHg 19%
    11:00 +42°C° 0 mm 4 m/s 745 mmHg 22%
    12:00 +42°C° 0 mm 4 m/s 745 mmHg 25%
    13:00 +41°C° 0 mm 4 m/s 745 mmHg 28%
    14:00 +41°C° 0 mm 4 m/s 744 mmHg 32%
    15:00 +39°C° 0 mm 3 m/s 744 mmHg 36%
    16:00 +38°C° 0 mm 3 m/s 744 mmHg 40%
    17:00 +37°C° 0 mm 2 m/s 744 mmHg 45%
    18:00 +35°C° 0 mm 2 m/s 744 mmHg 49%
    19:00 +34°C° 0 mm 2 m/s 745 mmHg 56%
    20:00 +31°C° 0 mm 1 m/s 745 mmHg 62%
    21:00 +29°C° 0 mm 1 m/s 745 mmHg 68%
    22:00 +30°C° 0 mm 1 m/s 745 mmHg 65%
    23:00 +30°C° 0 mm 1 m/s 745 mmHg 62%

    27 Iunie, Marţi

    Timp Temperatura Precipitaţii Vânt Presiune Umiditate
    00:00 +31°C° 0 mm 1 m/s 745 mmHg 59%
    01:00 +30°C° 0 mm 2 m/s 745 mmHg 62%
    02:00 +29°C° 0 mm 2 m/s 745 mmHg 64%
    03:00 +28°C° 0 mm 2 m/s 745 mmHg 67%
    04:00 +29°C° 0 mm 2 m/s 745 mmHg 64%
    05:00 +30°C° 0 mm 2 m/s 745 mmHg 60%
    06:00 +31°C° 0 mm 2 m/s 746 mmHg 57%
    07:00 +34°C° 0 mm 2 m/s 746 mmHg 50%
    08:00 +36°C° 0 mm 2 m/s 746 mmHg 43%
    09:00 +38°C° 0 mm 2 m/s 746 mmHg 36%
    10:00 +39°C° 0,1 mm 2 m/s 746 mmHg 33%
    11:00 +40°C° 0,1 mm 2 m/s 746 mmHg 30%
    12:00 +42°C° 0,1 mm 3 m/s 746 mmHg 27%
    13:00 +42°C° 0,2 mm 3 m/s 745 mmHg 29%
    14:00 +40°C° 0,2 mm 3 m/s 745 mmHg 30%
    15:00 +39°C° 0,2 mm 2 m/s 745 mmHg 32%
    16:00 +38°C° 0 mm 2 m/s 745 mmHg 34%
    17:00 +37°C° 0 mm 2 m/s 745 mmHg 37%
    18:00 +36°C° 0 mm 2 m/s 745 mmHg 39%
    19:00 +35°C° 0 mm 2 m/s 745 mmHg 41%
    20:00 +32°C° 0 mm 2 m/s 745 mmHg 42%
    21:00 +31°C° 0 mm 2 m/s 745 mmHg 44%
    22:00 +32°C° 0 mm 2 m/s 745 mmHg 38%
    23:00 +32°C° 0 mm 2 m/s 744 mmHg 32%

    28 Iunie, Miercuri

    Timp Temperatura Precipitaţii Vânt Presiune Umiditate
    00:00 +34°C° 0 mm 2 m/s 744 mmHg 26%
    01:00 +32°C° 0,1 mm 2 m/s 744 mmHg 30%
    02:00 +31°C° 0,1 mm 2 m/s 744 mmHg 35%
    03:00 +29°C° 0,1 mm 2 m/s 744 mmHg 40%
    04:00 +30°C° 0,1 mm 2 m/s 744 mmHg 41%
    05:00 +31°C° 0,1 mm 2 m/s 744 mmHg 41%
    06:00 +32°C° 0,1 mm 2 m/s 744 mmHg 42%
    07:00 +35°C° 0 mm 3 m/s 745 mmHg 35%
    08:00 +37°C° 0 mm 4 m/s 745 mmHg 28%
    09:00 +40°C° 0 mm 5 m/s 745 mmHg 21%
    10:00 +41°C° 0 mm 6 m/s 745 mmHg 21%
    11:00 +43°C° 0 mm 7 m/s 745 mmHg 20%
    12:00 +43°C° 0 mm 8 m/s 745 mmHg 19%
    13:00 +41°C° 0 mm 7 m/s 745 mmHg 22%
    14:00 +40°C° 0 mm 7 m/s 744 mmHg 25%
    15:00 +39°C° 0 mm 7 m/s 744 mmHg 28%
    16:00 +38°C° 0 mm 6 m/s 744 mmHg 32%
    17:00 +35°C° 0 mm 5 m/s 744 mmHg 36%
    18:00 +33°C° 0 mm 4 m/s 744 mmHg 41%
    19:00 +31°C° 0 mm 3 m/s 744 mmHg 44%
    20:00 +30°C° 0 mm 3 m/s 745 mmHg 47%
    21:00 +28°C° 0 mm 3 m/s 745 mmHg 51%
    22:00 +28°C° 0 mm 3 m/s 745 mmHg 48%
    23:00 +28°C° 0 mm 3 m/s 745 mmHg 46%
    Arată mai mult